VOE2393 LFPO-LFBL

Flight info

Callsign VOE2393
Flight time 0h 54m
Altitude 27000
Route ERIXU DCT ETAMO DCT GUERE
Aircraft A320/M-SDE3FGHIRWY/LB1

Departure

Time 2026-05-05 20:09
Airport Paris-Orly Airport (LFPO)

Arrival

Time 2026-05-05 21:03
Airport Limoges Airport (LFBL)
Time Latitude Longitude Altitude Speed Heading
2026-05-05 19:33 48.73017 2.35828 294 ft 0 kts 133°
2026-05-05 19:58 48.73027 2.35812 291 ft 4 kts 134°
2026-05-05 19:59 48.73045 2.35783 291 ft 4 kts 134°
2026-05-05 19:59 48.73063 2.35756 292 ft 4 kts 144°
2026-05-05 19:59 48.73085 2.35744 291 ft 4 kts 194°
2026-05-05 19:59 48.73103 2.35761 290 ft 1 kts 237°
2026-05-05 20:00 48.73106 2.35768 285 ft 0 kts 237°
2026-05-05 20:02 48.73097 2.35747 288 ft 5 kts 237°
2026-05-05 20:02 48.73068 2.35679 290 ft 8 kts 237°
2026-05-05 20:02 48.73030 2.35593 286 ft 10 kts 236°
2026-05-05 20:03 48.72977 2.35533 290 ft 9 kts 199°
2026-05-05 20:03 48.72918 2.35533 288 ft 9 kts 168°
2026-05-05 20:03 48.72842 2.35563 289 ft 12 kts 164°
2026-05-05 20:03 48.72802 2.35580 290 ft 0 kts 164°
2026-05-05 20:04 48.72798 2.35582 289 ft 4 kts 165°
2026-05-05 20:04 48.72747 2.35521 286 ft 11 kts 238°
2026-05-05 20:04 48.72687 2.35502 286 ft 9 kts 165°
2026-05-05 20:05 48.72636 2.35524 287 ft 7 kts 164°
2026-05-05 20:05 48.72584 2.35546 288 ft 9 kts 164°
2026-05-05 20:05 48.72512 2.35577 286 ft 12 kts 164°
2026-05-05 20:05 48.72446 2.35605 290 ft 10 kts 164°
2026-05-05 20:06 48.72353 2.35639 286 ft 13 kts 178°
2026-05-05 20:06 48.72262 2.35605 287 ft 18 kts 192°
2026-05-05 20:06 48.72150 2.35632 286 ft 14 kts 166°
2026-05-05 20:06 48.72076 2.35674 289 ft 0 kts 146°
2026-05-05 20:07 48.72041 2.35728 288 ft 13 kts 125°
2026-05-05 20:07 48.72000 2.35824 287 ft 9 kts 117°
2026-05-05 20:08 48.71964 2.35927 287 ft 9 kts 118°
2026-05-05 20:08 48.71964 2.35983 287 ft 0 kts 76°
2026-05-05 20:08 48.71964 2.35988 287 ft 4 kts 76°
2026-05-05 20:09 48.72012 2.36254 291 ft 60 kts 74°
2026-05-05 20:09 48.72207 2.37279 287 ft 139 kts 74°
2026-05-05 20:09 48.72508 2.38942 626 ft 170 kts 73°
2026-05-05 20:09 48.72817 2.40644 1679 ft 167 kts 70°
2026-05-05 20:10 48.73127 2.42326 2568 ft 164 kts 70°
2026-05-05 20:10 48.73429 2.43961 3247 ft 163 kts 70°
2026-05-05 20:10 48.73742 2.45642 3704 ft 173 kts 71°
2026-05-05 20:10 48.74041 2.47536 3953 ft 198 kts 81°
2026-05-05 20:11 48.74150 2.49730 4259 ft 218 kts 84°
2026-05-05 20:11 48.74233 2.52142 4604 ft 241 kts 84°
2026-05-05 20:11 48.74316 2.54797 5104 ft 261 kts 85°
2026-05-05 20:11 48.74020 2.57537 5859 ft 273 kts 115°
2026-05-05 20:12 48.72742 2.59684 6638 ft 283 kts 147°
2026-05-05 20:12 48.70915 2.60839 7463 ft 287 kts 163°
2026-05-05 20:12 48.68968 2.61502 8446 ft 285 kts 169°
2026-05-05 20:12 48.67012 2.61851 9396 ft 284 kts 183°
2026-05-05 20:13 48.65069 2.61316 10262 ft 284 kts 198°
2026-05-05 20:13 48.63257 2.60124 11039 ft 287 kts 211°
2026-05-05 20:13 48.61636 2.58210 11353 ft 308 kts 228°
2026-05-05 20:13 48.60191 2.55663 11594 ft 329 kts 231°
2026-05-05 20:14 48.58705 2.52969 12175 ft 337 kts 231°
2026-05-05 20:14 48.57198 2.50216 12738 ft 340 kts 231°
2026-05-05 20:14 48.55687 2.47455 13440 ft 342 kts 231°
2026-05-05 20:14 48.54185 2.44716 14125 ft 345 kts 231°
2026-05-05 20:15 48.52556 2.42040 14749 ft 349 kts 222°
2026-05-05 20:15 48.50589 2.39866 15413 ft 352 kts 211°
2026-05-05 20:15 48.48459 2.37998 16065 ft 355 kts 211°
2026-05-05 20:15 48.46317 2.36117 16706 ft 359 kts 211°
2026-05-05 20:16 48.44153 2.34211 17301 ft 363 kts 211°
2026-05-05 20:16 48.41967 2.32282 17941 ft 365 kts 211°
2026-05-05 20:16 48.39762 2.30336 18517 ft 368 kts 211°
2026-05-05 20:16 48.37541 2.28382 19058 ft 372 kts 211°
2026-05-05 20:17 48.35295 2.26410 19582 ft 375 kts 210°
2026-05-05 20:17 48.33030 2.24435 20119 ft 379 kts 208°
2026-05-05 20:17 48.30607 2.22851 20667 ft 382 kts 198°
2026-05-05 20:17 48.28005 2.21992 21157 ft 386 kts 186°
2026-05-05 20:18 48.25310 2.21918 21645 ft 390 kts 174°
2026-05-05 20:18 48.22615 2.22510 22170 ft 393 kts 170°
2026-05-05 20:18 48.19902 2.23177 22704 ft 396 kts 170°
2026-05-05 20:18 48.17176 2.23843 23270 ft 398 kts 170°
2026-05-05 20:19 48.14432 2.24509 23719 ft 400 kts 170°
2026-05-05 20:19 48.11674 2.25174 24152 ft 403 kts 170°
2026-05-05 20:19 48.08896 2.25831 24561 ft 405 kts 172°
2026-05-05 20:19 48.06070 2.26131 24806 ft 408 kts 176°
2026-05-05 20:20 48.03237 2.26311 24859 ft 408 kts 176°
2026-05-05 20:20 48.00404 2.26487 24864 ft 407 kts 176°
2026-05-05 20:20 47.97571 2.26663 24867 ft 406 kts 177°
2026-05-05 20:20 47.95703 2.26780 24864 ft 405 kts 177°
2026-05-05 20:21 47.92888 2.26958 24862 ft 405 kts 177°
2026-05-05 20:21 47.90073 2.27139 24864 ft 405 kts 177°
2026-05-05 20:21 47.87261 2.27320 24922 ft 406 kts 177°
2026-05-05 20:21 47.84427 2.27502 25341 ft 408 kts 176°
2026-05-05 20:22 47.80650 2.27743 25855 ft 411 kts 176°
2026-05-05 20:22 47.78714 2.27866 26111 ft 413 kts 176°
2026-05-05 20:22 47.75840 2.28047 26501 ft 415 kts 177°
2026-05-05 20:22 47.72948 2.28226 26790 ft 417 kts 176°
2026-05-05 20:23 47.70075 2.28405 26848 ft 407 kts 177°
2026-05-05 20:23 47.67272 2.28575 26843 ft 400 kts 176°
2026-05-05 20:23 47.64528 2.28743 26857 ft 399 kts 177°
2026-05-05 20:23 47.61762 2.28918 26857 ft 398 kts 176°
2026-05-05 20:24 47.58996 2.29098 26860 ft 398 kts 176°
2026-05-05 20:24 47.56232 2.29278 26865 ft 397 kts 177°
2026-05-05 20:24 47.53475 2.29454 26859 ft 396 kts 177°
2026-05-05 20:24 47.50717 2.29623 26866 ft 396 kts 177°
2026-05-05 20:25 47.47963 2.29788 26865 ft 396 kts 177°
2026-05-05 20:25 47.45211 2.29956 26858 ft 396 kts 177°
2026-05-05 20:25 47.42461 2.30126 26860 ft 396 kts 177°
2026-05-05 20:25 47.39712 2.30299 26860 ft 395 kts 177°
2026-05-05 20:26 47.36964 2.30477 26861 ft 395 kts 177°
2026-05-05 20:26 47.34219 2.30654 26874 ft 395 kts 177°
2026-05-05 20:26 47.31478 2.30830 26869 ft 394 kts 178°
2026-05-05 20:26 47.28742 2.30999 26869 ft 393 kts 178°
2026-05-05 20:27 47.26009 2.31167 26885 ft 393 kts 178°
2026-05-05 20:27 47.23279 2.31336 26884 ft 393 kts 178°
2026-05-05 20:27 47.20550 2.31502 26888 ft 392 kts 178°
2026-05-05 20:27 47.17824 2.31669 26891 ft 392 kts 178°
2026-05-05 20:28 47.15099 2.31838 26888 ft 392 kts 178°
2026-05-05 20:28 47.12374 2.32007 26895 ft 391 kts 178°
2026-05-05 20:28 47.09659 2.32174 26890 ft 391 kts 178°
2026-05-05 20:28 47.06942 2.32343 26901 ft 390 kts 178°
2026-05-05 20:29 47.04230 2.32511 26896 ft 390 kts 178°
2026-05-05 20:29 47.01521 2.32679 26900 ft 390 kts 178°
2026-05-05 20:29 46.98813 2.32849 26891 ft 389 kts 178°
2026-05-05 20:29 46.96106 2.33016 26890 ft 389 kts 178°
2026-05-05 20:30 46.93388 2.33181 26894 ft 389 kts 178°
2026-05-05 20:30 46.90681 2.33345 26884 ft 389 kts 178°
2026-05-05 20:30 46.88002 2.33507 26895 ft 391 kts 178°
2026-05-05 20:30 46.85297 2.33616 26893 ft 389 kts 182°
2026-05-05 20:31 46.82604 2.33176 26892 ft 394 kts 192°
2026-05-05 20:31 46.79923 2.32207 26484 ft 398 kts 194°
2026-05-05 20:31 46.77250 2.31179 25799 ft 397 kts 194°
2026-05-05 20:31 46.74583 2.30139 25209 ft 394 kts 195°
2026-05-05 20:32 46.71955 2.29113 24749 ft 389 kts 195°
2026-05-05 20:32 46.69357 2.28101 24305 ft 384 kts 195°
2026-05-05 20:32 46.66789 2.27108 23846 ft 380 kts 195°
2026-05-05 20:32 46.64246 2.26132 23364 ft 376 kts 194°
2026-05-05 20:33 46.61726 2.25170 22873 ft 372 kts 194°
2026-05-05 20:33 46.59233 2.24221 22411 ft 368 kts 195°
2026-05-05 20:33 46.56769 2.23280 21953 ft 364 kts 195°
2026-05-05 20:33 46.54327 2.22345 21495 ft 361 kts 194°
2026-05-05 20:34 46.51914 2.21424 21043 ft 357 kts 194°
2026-05-05 20:34 46.49513 2.20512 20587 ft 354 kts 194°
2026-05-05 20:34 46.47138 2.19608 20138 ft 352 kts 194°
2026-05-05 20:34 46.44781 2.18710 19696 ft 349 kts 194°
2026-05-05 20:35 46.42473 2.17832 19270 ft 346 kts 195°
2026-05-05 20:35 46.40150 2.16949 18834 ft 344 kts 195°
2026-05-05 20:35 46.37838 2.16070 18403 ft 343 kts 195°
2026-05-05 20:35 46.35538 2.15194 17938 ft 341 kts 195°
2026-05-05 20:36 46.33249 2.14325 17497 ft 338 kts 195°
2026-05-05 20:36 46.30980 2.13467 17071 ft 335 kts 195°
2026-05-05 20:36 46.28732 2.12619 16660 ft 333 kts 195°
2026-05-05 20:36 46.26501 2.11781 16248 ft 330 kts 195°
2026-05-05 20:37 46.24285 2.10948 15837 ft 328 kts 195°
2026-05-05 20:37 46.22117 2.09952 15424 ft 325 kts 205°
2026-05-05 20:37 46.20222 2.08206 15030 ft 323 kts 221°
2026-05-05 20:37 46.18736 2.05787 14622 ft 323 kts 236°
2026-05-05 20:38 46.17771 2.02876 14198 ft 323 kts 251°
2026-05-05 20:38 46.17144 1.99769 13778 ft 322 kts 252°
2026-05-05 20:38 46.16514 1.96645 13228 ft 324 kts 252°
2026-05-05 20:38 46.15885 1.93538 12805 ft 321 kts 252°
2026-05-05 20:39 46.15263 1.90460 12394 ft 318 kts 252°
2026-05-05 20:39 46.14643 1.87407 11983 ft 315 kts 252°
2026-05-05 20:39 46.14034 1.84421 11574 ft 313 kts 252°
2026-05-05 20:39 46.13420 1.81423 11156 ft 311 kts 252°
2026-05-05 20:40 46.12814 1.78445 10746 ft 309 kts 252°
2026-05-05 20:40 46.12212 1.75480 10335 ft 307 kts 252°
2026-05-05 20:40 46.11613 1.72541 10041 ft 301 kts 252°
2026-05-05 20:40 46.11034 1.69704 9919 ft 290 kts 252°
2026-05-05 20:41 46.10470 1.66953 9679 ft 283 kts 252°
2026-05-05 20:41 46.09914 1.64254 9310 ft 280 kts 252°
2026-05-05 20:41 46.09359 1.61569 8900 ft 280 kts 252°
2026-05-05 20:41 46.08804 1.58893 8498 ft 278 kts 252°
2026-05-05 20:42 46.08256 1.56237 8113 ft 275 kts 253°
2026-05-05 20:42 46.07714 1.53603 7753 ft 272 kts 253°
2026-05-05 20:42 46.07186 1.51038 7485 ft 265 kts 253°
2026-05-05 20:42 46.06651 1.48440 6761 ft 276 kts 253°
2026-05-05 20:43 46.06090 1.45740 6027 ft 287 kts 253°
2026-05-05 20:43 46.05525 1.43030 5803 ft 275 kts 253°
2026-05-05 20:43 46.04997 1.40496 5675 ft 253 kts 253°
2026-05-05 20:43 46.04513 1.38182 5540 ft 231 kts 253°
2026-05-05 20:44 46.04044 1.36083 5408 ft 210 kts 245°
2026-05-05 20:44 46.03276 1.34411 5267 ft 195 kts 227°
2026-05-05 20:44 46.02228 1.33243 5092 ft 188 kts 216°
2026-05-05 20:44 46.01135 1.32214 4743 ft 188 kts 216°
2026-05-05 20:45 45.99005 1.30203 4187 ft 179 kts 216°
2026-05-05 20:45 45.97967 1.29221 3941 ft 178 kts 216°
2026-05-05 20:45 45.96932 1.28242 3771 ft 181 kts 216°
2026-05-05 20:46 45.95894 1.27268 3455 ft 175 kts 216°
2026-05-05 20:46 45.94887 1.26327 3144 ft 166 kts 216°
2026-05-05 20:46 45.93947 1.25446 2868 ft 156 kts 216°
2026-05-05 20:46 45.93079 1.24632 2664 ft 144 kts 217°
2026-05-05 20:47 45.92262 1.23865 2475 ft 137 kts 217°
2026-05-05 20:47 45.91470 1.23119 2318 ft 136 kts 217°
2026-05-05 20:47 45.90680 1.22379 2172 ft 135 kts 216°
2026-05-05 20:47 45.89891 1.21646 2001 ft 135 kts 215°
2026-05-05 20:48 45.89110 1.20903 1790 ft 134 kts 216°
2026-05-05 20:48 45.88327 1.20149 1629 ft 137 kts 214°
2026-05-05 20:48 45.87522 1.19385 1675 ft 143 kts 214°
2026-05-05 20:48 45.86711 1.18619 2538 ft 138 kts 216°
2026-05-05 20:49 45.85888 1.17877 3106 ft 147 kts 217°
2026-05-05 20:49 45.84972 1.17013 3365 ft 168 kts 217°
2026-05-05 20:49 45.83981 1.16053 3809 ft 176 kts 221°
2026-05-05 20:49 45.83347 1.14534 3944 ft 186 kts 267°
2026-05-05 20:50 45.83741 1.12767 3972 ft 198 kts 311°
2026-05-05 20:50 45.85063 1.11920 4355 ft 208 kts
2026-05-05 20:50 45.86398 1.12556 4843 ft 212 kts 33°
2026-05-05 20:50 45.87488 1.14080 4405 ft 226 kts 46°
2026-05-05 20:51 45.88582 1.15778 4030 ft 236 kts 44°
2026-05-05 20:51 45.89718 1.17432 4001 ft 229 kts 42°
2026-05-05 20:51 45.90849 1.18976 3998 ft 219 kts 41°
2026-05-05 20:51 45.91957 1.20417 3999 ft 211 kts 39°
2026-05-05 20:52 45.93035 1.21771 4004 ft 201 kts 39°
2026-05-05 20:52 45.94084 1.23060 4016 ft 205 kts 38°
2026-05-05 20:52 45.95218 1.24432 4005 ft 212 kts 38°
2026-05-05 20:52 45.96333 1.25779 4037 ft 201 kts 38°
2026-05-05 20:53 45.97365 1.27025 4012 ft 186 kts 37°
2026-05-05 20:53 45.98302 1.28151 3987 ft 171 kts 37°
2026-05-05 20:53 45.99197 1.29223 3992 ft 165 kts 37°
2026-05-05 20:53 46.00083 1.30285 3994 ft 164 kts 37°
2026-05-05 20:54 46.01008 1.31388 3999 ft 178 kts 37°
2026-05-05 20:54 46.01853 1.32713 4002 ft 182 kts 48°
2026-05-05 20:54 46.02601 1.34192 3996 ft 183 kts 56°
2026-05-05 20:54 46.03243 1.35771 3998 ft 183 kts 59°
2026-05-05 20:55 46.03856 1.37351 3994 ft 183 kts 59°
2026-05-05 20:55 46.04473 1.38951 3994 ft 182 kts 60°
2026-05-05 20:55 46.05089 1.40551 3990 ft 183 kts 60°
2026-05-05 20:55 46.05787 1.42062 3989 ft 181 kts 40°
2026-05-05 20:56 46.06863 1.42889 3989 ft 174 kts
2026-05-05 20:56 46.08026 1.42763 3989 ft 166 kts 334°
2026-05-05 20:56 46.08980 1.41758 3996 ft 177 kts 304°
2026-05-05 20:56 46.09419 1.40103 3961 ft 182 kts 271°
2026-05-05 20:57 46.09135 1.38325 3994 ft 186 kts 239°
2026-05-05 20:57 46.08188 1.37066 3996 ft 189 kts 206°
2026-05-05 20:57 46.06985 1.36459 4028 ft 177 kts 202°
2026-05-05 20:57 46.05866 1.35874 3993 ft 167 kts 204°
2026-05-05 20:58 46.04790 1.35295 3990 ft 164 kts 204°
2026-05-05 20:58 46.03739 1.34683 3979 ft 161 kts 212°
2026-05-05 20:58 46.02802 1.33810 3991 ft 160 kts 216°
2026-05-05 20:58 46.01870 1.32926 3996 ft 160 kts 216°
2026-05-05 20:59 46.00945 1.32051 4000 ft 159 kts 216°
2026-05-05 20:59 46.00016 1.31174 4003 ft 160 kts 216°
2026-05-05 20:59 45.99086 1.30294 4002 ft 160 kts 216°
2026-05-05 20:59 45.98155 1.29412 3923 ft 162 kts 216°
2026-05-05 21:00 45.97218 1.28525 3669 ft 158 kts 216°
2026-05-05 21:00 45.96324 1.27685 3440 ft 148 kts 216°
2026-05-05 21:00 45.95480 1.26893 3276 ft 141 kts 217°
2026-05-05 21:00 45.94678 1.26137 3093 ft 138 kts 217°
2026-05-05 21:01 45.93884 1.25386 2909 ft 136 kts 217°
2026-05-05 21:01 45.93097 1.24648 2706 ft 134 kts 217°
2026-05-05 21:01 45.92318 1.23917 2536 ft 133 kts 217°
2026-05-05 21:01 45.91548 1.23187 2408 ft 133 kts 217°
2026-05-05 21:02 45.90768 1.22452 2201 ft 134 kts 216°
2026-05-05 21:02 45.89993 1.21716 1993 ft 134 kts 216°
2026-05-05 21:02 45.89215 1.20982 1816 ft 134 kts 215°
2026-05-05 21:02 45.88431 1.20246 1678 ft 136 kts 214°
2026-05-05 21:03 45.87640 1.19506 1460 ft 137 kts 214°
2026-05-05 21:03 45.86856 1.18766 1315 ft 129 kts 214°
2026-05-05 21:03 45.86234 1.18174 1311 ft 83 kts 213°
2026-05-05 21:03 45.85879 1.17844 1313 ft 48 kts 213°
2026-05-05 21:04 45.85622 1.17599 1312 ft 41 kts 212°
2026-05-05 21:04 45.85448 1.17439 1312 ft 17 kts 214°
2026-05-05 21:04 45.85390 1.17317 1314 ft 16 kts 281°
2026-05-05 21:04 45.85443 1.17245 1314 ft 0 kts 346°
2026-05-05 21:05 45.85446 1.17244 1314 ft 3 kts 347°
2026-05-05 21:05 45.85495 1.17254 1314 ft 9 kts 15°
2026-05-05 21:05 45.85549 1.17275 1314 ft 7 kts 15°
2026-05-05 21:06 45.85600 1.17312 1315 ft 13 kts 31°
2026-05-05 21:06 45.85709 1.17414 1315 ft 24 kts 33°
2026-05-05 21:06 45.85805 1.17506 1315 ft 26 kts 33°
2026-05-05 21:06 45.85952 1.17641 1315 ft 21 kts 36°
2026-05-05 21:07 45.86041 1.17725 1315 ft 3 kts 32°
2026-05-05 21:07 45.86054 1.17737 1315 ft 2 kts 32°
2026-05-05 21:07 45.86066 1.17748 1315 ft 4 kts 34°
2026-05-05 21:07 45.86093 1.17776 1315 ft 3 kts 28°
2026-05-05 21:08 45.86107 1.17761 1315 ft 6 kts 308°
2026-05-05 21:08 45.86135 1.17700 1315 ft 5 kts 303°
2026-05-05 21:08 45.86136 1.17698 1315 ft 0 kts 303°
2026-05-05 21:11 45.86139 1.17696 1315 ft 1 kts 323°
2026-05-05 21:11 45.86144 1.17702 1315 ft 1 kts 31°
2026-05-05 21:12 45.86145 1.17714 1315 ft 5 kts 70°
2026-05-05 21:12 45.86152 1.17741 1315 ft 0 kts 72°
2026-05-05 21:12 45.86152 1.17743 1315 ft 0 kts 72°